Wetbulb
51.68 51.99 52.33 52.68 52.92 52.90 52.84 52.68 51.97 52.44 52.73 52.75 53.29 53.48 53.81 53.99 53.97 52.15 49.55 49.54 45.27 40.02 40.87 43.38 43.79 41.46 41.28 40.98 36.73 39.63 36.17 35.93 33.44 31.33 32.34 31.71 32.25 34.14 33.46 35.77 34.44 34.00 33.32 31.72 33.34 34.79 33.05 44.32 44.65 38.73 41.42 45.90 46.80 47.40
51.81 52.07 52.23 52.62 52.70 52.61 52.35 52.01 52.37 52.55 51.99 52.69 53.23 53.54 53.93 54.20 53.91 53.24 48.47 51.37 49.91 43.80 43.17 45.61 46.20 47.01 46.15 44.97 42.09 42.33 38.74 37.03 36.23 33.08 33.33 34.11 32.19 34.48 33.13 30.13 37.65 31.74 35.26 34.02 34.23 35.61 43.57 44.93 45.53 47.49 46.12 44.37 44.15 45.47
51.89 52.07 52.17 52.31 52.22 52.17 51.83 52.16 52.39 52.57 52.47 53.00 53.54 54.01 54.30 54.05 54.01 53.26 49.64 48.94 47.07 42.77 41.66 43.13 44.63 49.17 50.21 49.29 49.31 40.44 41.65 42.14 38.77 38.29 34.93 34.96 32.24 33.98 29.53 31.78 34.35 37.19 39.53 34.51 32.95 37.37 39.12 41.59 44.97 44.88 44.77 44.14 44.63 45.99
51.83 52.03 51.98 52.06 51.90 51.69 51.96 51.93 52.28 52.19 52.59 53.09 53.83 54.07 54.03 53.74 53.68 51.51 47.85 48.98 46.64 41.94 34.32 39.58 49.67 44.77 49.76 47.29 48.28 48.01 45.34 44.72 43.72 38.67 33.04 31.77 32.41 36.57 32.06 32.76 33.02 37.14 37.85 35.94 34.83 36.40 39.77 42.76 43.81 43.97 44.80 45.92 45.67 46.29
51.56 51.76 51.80 51.60 51.31 51.66 51.43 51.68 51.95 52.25 52.93 53.52 53.68 53.93 53.54 53.66 53.58 52.72 49.61 47.63 45.85 41.96 34.25 36.65 41.97 42.98 45.36 45.20 44.88 45.17 43.70 42.55 41.07 37.86 34.84 33.20 37.19 35.03 32.83 32.50 34.98 39.14 36.39 34.44 33.83 39.09 39.20 39.55 42.55 45.10 44.83 44.82 45.80 45.31
51.32 51.46 51.41 51.24 51.02 51.18 51.22 51.45 51.98 52.57 52.98 53.33 53.67 53.64 53.35 53.58 53.42 51.82 45.27 47.72 47.89 45.31 37.99 34.24 42.36 45.44 46.51 44.52 43.86 42.18 42.68 41.15 40.08 36.99 35.08 36.67 39.32 36.17 30.77 29.30 38.04 39.54 41.12 43.78 42.79 43.79 42.63 43.06 43.98 45.70 46.09 46.43 47.04 47.00
51.25 51.20 51.40 51.03 51.30 51.09 51.21 51.53 52.09 52.59 53.05 53.42 53.14 52.92 53.13 52.84 48.60 46.28 43.51 47.20 49.69 46.79 41.01 36.48 39.87 44.63 46.05 42.66 42.24 42.24 41.76 39.44 39.18 37.09 35.82 36.10 36.50 37.27 32.00 29.95 36.55 42.67 43.19 44.38 46.51 47.61 43.76 45.16 44.97 47.57 46.36 47.78 49.32 49.81
50.96 51.23 51.36 51.10 50.85 50.85 50.98 51.57 52.56 52.95 53.33 52.94 52.78 52.26 51.19 50.69 49.02 45.58 46.40 49.63 48.63 43.53 40.97 39.48 40.78 43.73 47.40 43.21 40.30 40.12 38.03 39.77 38.64 37.02 38.18 35.42 36.30 33.97 31.63 37.04 41.48 43.04 43.50 43.97 45.82 47.38 45.99 47.37 47.21 46.95 47.95 47.97 48.04 48.62
50.96 51.21 51.04 50.69 50.47 50.61 50.89 51.57 52.63 52.66 52.91 52.87 52.80 52.90 49.78 46.98 45.51 46.09 52.15 50.94 47.00 43.85 40.83 41.91 39.23 39.72 45.57 44.30 42.50 39.75 37.36 36.12 39.23 36.54 38.08 37.59 32.03 31.62 34.66 39.00 40.80 44.20 42.19 42.88 45.48 46.04 47.16 46.94 47.31 47.66 47.48 47.83 46.82 46.06
50.89 51.11 51.27 50.93 51.07 50.61 51.32 52.33 52.68 52.66 52.17 52.47 49.44 47.20 45.72 46.91 53.28 50.93 45.45 44.56 45.23 42.00 40.84 39.84 44.14 42.22 46.77 44.12 42.53 41.16 40.61 39.02 36.82 37.44 40.02 37.22 37.10 42.36 42.82 42.59 42.88 45.22 45.37 45.01 42.60 42.23 44.34 44.88 45.06 45.78 46.15 46.57 45.96 46.13
51.00 51.12 51.37 51.56 51.77 51.93 52.10 52.50 52.74 52.17 51.67 47.31 46.41 46.71 46.88 53.02 46.88 46.08 44.04 39.49 39.92 40.27 41.84 41.05 44.08 43.52 47.92 42.46 41.90 44.32 41.28 38.71 31.83 35.02 34.81 36.10 35.47 40.84 44.56 42.93 42.50 44.01 46.91 45.97 45.63 45.70 45.88 46.25 45.15 44.48 45.10 45.74 45.79 45.81
50.85 50.96 51.20 51.51 51.85 52.10 52.30 52.21 52.46 48.07 49.40 49.28 48.15 50.49 47.94 45.31 43.98 41.82 40.41 41.79 39.95 38.39 43.76 42.97 43.83 46.15 45.38 45.43 41.78 44.40 40.38 39.28 31.69 38.89 33.94 32.74 39.71 42.33 42.17 43.29 42.30 41.34 45.43 45.85 46.63 45.63 45.86 46.50 46.43 45.95 45.28 44.85 44.97 45.37
50.88 51.12 51.31 51.39 51.78 52.18 52.26 52.39 52.65 51.60 51.05 50.34 48.77 47.09 46.79 43.76 36.52 39.53 35.98 37.03 36.97 40.57 41.28 43.94 43.69 45.10 46.26 45.17 43.08 42.05 37.71 36.30 38.89 32.85 32.71 36.59 40.47 41.81 42.02 42.01 42.38 42.05 43.42 46.13 45.61 45.80 45.76 45.71 46.38 44.94 44.41 45.19 45.06 44.94
50.66 51.10 51.28 51.48 51.81 52.10 52.35 53.00 53.36 52.12 48.21 47.63 47.63 35.12 40.25 38.97 40.59 40.20 37.81 37.97 41.49 40.90 41.84 42.04 46.61 43.61 44.60 42.61 39.67 38.32 37.67 36.31 30.95 29.80 31.34 36.25 39.06 40.84 41.66 42.58 41.56 40.64 41.20 42.83 46.13 45.01 44.82 45.01 44.56 45.04 44.93 44.57 43.68 42.99
50.83 51.17 51.37 52.05 52.56 52.71 52.52 52.86 53.20 50.30 50.25 48.53 45.55 37.28 43.60 44.26 42.47 42.59 42.92 41.80 42.85 43.06 42.04 41.94 44.37 41.26 38.91 38.11 37.23 37.32 34.14 30.56 32.47 31.21 34.32 38.43 39.96 40.16 40.59 42.03 41.54 41.60 40.49 40.31 40.96 45.19 45.59 45.31 44.93 44.80 45.23 44.82 44.13 43.68
51.14 51.31 53.40 52.71 52.41 52.14 51.50 52.65 50.72 51.62 52.59 49.76 45.66 41.99 43.44 41.46 40.81 41.43 41.45 40.52 42.80 42.99 43.09 42.17 39.01 37.09 35.62 34.83 34.07 31.98 30.58 23.55 31.60 35.95 38.69 39.67 40.42 40.50 40.35 41.62 42.10 42.75 39.52 40.02 41.14 42.74 44.93 45.16 44.74 45.05 45.83 45.53 45.65 45.01
50.69 51.64 52.72 51.91 51.63 52.04 52.43 53.37 55.13 53.44 50.08 46.93 46.43 45.70 43.96 42.27 41.40 41.79 41.89 41.86 43.50 40.97 37.77 38.40 35.73 34.72 36.69 33.56 32.52 34.45 31.43 32.91 34.73 37.20 39.83 40.84 41.40 40.56 41.56 41.93 42.06 41.53 40.00 39.09 40.37 42.88 42.08 45.29 42.76 41.04 39.63 40.26 41.49 44.54
49.85 53.71 52.63 51.67 51.13 52.26 55.85 52.88 53.70 49.94 48.39 45.27 43.43 44.32 45.92 44.89 42.58 42.51 43.86 43.86 42.08 40.26 39.18 38.44 39.09 35.25 32.88 32.26 31.35 33.97 34.93 35.52 35.61 36.32 37.82 42.16 42.17 41.65 42.46 41.75 41.27 39.42 39.94 39.23 39.65 40.85 41.12 40.16 40.08 39.02 39.13 39.76 39.97 40.45
49.40 49.88 50.80 51.19 50.71 48.85 53.07 53.36 52.16 48.56 49.08 48.51 47.25 45.61 45.47 45.72 46.53 46.02 44.90 44.62 44.82 43.64 41.37 38.92 36.70 33.74 33.26 35.01 35.11 35.85 35.80 35.28 35.22 36.86 38.20 38.45 37.35 37.91 40.10 40.78 39.06 39.42 39.13 37.29 36.81 36.24 36.31 37.35 37.35 39.00 38.54 38.40 37.83 38.73
50.76 51.38 51.75 52.03 52.02 52.41 53.59 50.61 53.45 49.82 49.00 47.52 46.80 45.41 45.14 45.11 46.13 46.20 44.70 43.39 42.77 41.51 39.04 37.32 37.22 37.31 37.24 38.01 38.76 38.35 37.66 37.90 37.05 36.03 36.35 37.99 37.71 38.30 38.32 39.35 37.74 36.98 38.91 36.82 36.38 38.12 35.96 36.54 37.30 37.35 38.18 37.65 37.76 37.48
52.95 56.15 54.38 52.41 52.31 51.36 53.44 49.00 48.08 50.33 47.44 46.47 48.43 47.68 46.46 48.02 46.65 43.42 42.79 44.26 41.04 38.58 38.25 40.18 40.31 40.94 41.61 41.57 41.44 41.31 39.27 39.03 37.42 37.57 36.98 36.50 37.48 36.41 37.97 38.75 38.70 37.06 36.30 35.74 35.21 35.59 36.62 34.67 35.11 36.54 37.36 36.82 37.35 38.03
52.06 55.96 54.26 55.36 54.56 57.23 51.36 52.24 47.82 48.59 47.91 47.44 48.01 48.14 45.51 45.25 45.54 45.21 45.63 42.78 40.49 41.39 42.52 42.51 41.90 42.26 42.78 41.81 41.85 42.39 44.34 42.94 40.29 40.64 40.02 38.32 35.36 36.20 36.09 37.09 37.36 36.55 36.36 35.77 36.81 36.03 35.74 35.43 36.23 36.67 37.69 39.01 39.05 39.36
53.46 54.28 55.04 56.49 53.23 44.69 44.27 51.00 48.09 49.14 46.30 45.72 47.47 44.97 44.53 47.49 48.47 48.63 43.07 44.17 44.01 45.18 45.33 43.96 44.51 44.71 43.19 43.99 44.69 43.69 44.06 41.31 37.92 36.39 36.34 35.37 35.41 36.35 36.79 36.96 36.82 37.06 36.35 37.67 36.91 37.56 37.36 37.82 37.52 37.11 37.66 38.04 38.05 37.83
54.13 53.89 52.74 51.33 48.60 42.08 49.87 48.80 51.07 50.28 48.64 44.68 44.14 43.08 44.06 46.09 46.97 44.19 44.24 44.52 47.52 47.93 46.37 45.65 44.56 41.91 43.20 42.21 40.09 39.23 38.23 37.17 36.62 36.07 35.75 35.62 34.75 35.07 36.22 35.95 35.95 35.94 36.00 37.19 36.91 36.68 36.97 37.71 37.71 36.57 37.21 37.39 37.02 36.30
45.97 45.29 46.01 38.32 47.07 47.18 47.13 47.19 46.96 45.48 43.64 43.84 43.00 42.45 44.29 46.59 41.29 42.09 41.62 42.73 45.72 46.36 47.42 46.41 45.34 41.59 40.17 39.09 37.72 37.47 37.74 37.29 36.28 35.00 35.65 35.72 34.66 34.59 34.67 34.61 34.79 35.00 35.45 36.05 35.93 36.85 36.63 36.92 37.17 36.98 37.33 37.03 36.75 36.47
40.00 47.61 43.54 48.25 48.01 47.18 48.42 45.49 45.88 45.16 44.99 43.83 43.42 45.08 45.61 43.23 41.85 39.49 41.76 46.00 47.30 48.24 47.70 45.61 42.33 40.56 41.89 40.96 37.77 36.77 37.15 37.67 37.56 35.51 35.66 36.37 35.77 35.07 33.54 32.51 32.46 34.09 36.07 35.45 36.07 36.69 37.11 38.36 38.25 37.79 37.28 37.59 37.71 37.26
39.75 45.61 49.03 51.29 49.11 48.73 46.22 48.25 48.02 46.06 45.69 43.74 43.93 46.00 45.97 41.77 41.03 43.12 46.07 47.94 48.01 48.86 47.60 45.94 44.09 42.29 41.01 38.63 39.19 41.59 39.90 38.84 38.42 37.95 38.21 37.65 37.12 37.56 36.58 34.26 33.23 34.55 36.21 37.87 37.44 37.30 36.43 36.75 37.02 37.28 36.55 36.12 36.44 36.89
50.87 50.33 47.64 48.77 50.46 48.78 47.20 46.54 45.05 43.45 45.74 49.33 47.63 42.93 44.36 43.79 42.41 46.52 47.95 50.40 50.18 51.07 46.35 44.98 45.19 44.64 43.56 44.25 43.47 40.48 38.98 40.42 40.78 40.17 40.40 40.75 38.93 38.16 37.56 36.92 36.44 38.36 36.88 37.68 37.78 37.93 38.23 38.31 37.78 37.50 37.53 36.53 36.40 37.15
50.00 51.02 50.18 47.72 50.53 48.20 47.75 46.50 46.16 47.36 49.25 48.60 46.34 43.81 45.72 49.28 49.78 49.24 49.69 49.08 52.24 48.13 43.34 44.03 44.40 45.16 44.02 42.61 41.71 41.38 41.94 41.26 39.54 36.47 35.57 34.37 36.36 36.90 38.22 39.19 38.70 38.29 35.92 36.54 38.15 37.75 38.20 37.68 38.35 36.78 37.13 37.44 38.11 37.83
49.88 52.08 49.28 49.84 47.78 46.97 50.21 50.60 49.38 51.47 49.05 48.79 48.66 47.99 47.74 48.71 50.31 51.75 50.18 46.52 44.10 43.58 43.28 42.36 40.97 41.33 39.82 39.11 38.82 38.41 39.48 38.71 37.49 35.24 32.97 32.25 32.87 35.06 36.33 37.87 38.08 37.90 38.65 38.54 39.14 39.53 39.40 39.86 40.46 38.91 37.33 35.35 34.64 34.50
52.23 51.24 50.35 48.34 47.34 49.25 50.73 52.46 51.55 49.17 48.91 48.65 49.35 46.90 47.94 48.76 48.63 49.88 45.95 45.75 45.06 43.39 41.82 39.76 39.02 38.51 38.18 37.02 36.68 35.20 33.32 35.03 35.64 36.09 35.39 34.41 34.63 35.64 36.17 36.38 36.90 37.60 38.75 39.70 40.26 39.38 37.86 37.69 37.40 37.53 37.46 36.39 35.57 35.15
50.91 50.77 49.62 47.89 48.13 51.16 51.64 50.16 49.01 46.63 47.57 46.82 46.73 49.53 48.61 46.86 45.42 44.57 45.53 44.13 41.80 40.43 41.12 39.32 37.98 37.95 38.58 38.60 38.10 37.37 36.86 34.24 34.06 34.91 35.25 34.75 34.34 34.69 34.60 34.58 35.59 37.88 38.05 37.93 37.15 37.49 38.24 36.89 36.53 36.51 36.63 36.92 36.70 37.34
51.39 50.34 50.29 49.07 47.99 48.06 49.53 49.31 49.42 46.74 47.73 46.60 47.21 48.43 48.86 46.50 42.42 44.59 46.65 45.12 42.36 40.76 39.74 39.66 40.90 40.65 39.08 38.60 37.34 36.43 36.02 34.29 35.37 36.04 36.29 36.25 36.12 35.00 33.31 33.26 35.15 36.60 37.32 36.60 36.83 35.94 35.76 36.41 36.08 36.70 37.44 36.16 36.16 35.24
MSLP
1025.16 1024.66 1024.09 1023.52 1022.89 1022.50 1022.13 1021.63 1021.10 1020.68 1020.29 1019.88 1019.58 1019.30 1019.05 1018.84 1018.73 1018.98 1018.87 1019.02 1019.40 1019.47 1018.66 1018.00 1017.49 1017.06 1016.30 1016.02 1015.63 1015.42 1015.11 1014.80 1014.43 1014.22 1013.86 1013.07 1012.40 1011.57 1010.99 1011.31 1010.57 1010.30 1010.27 1009.49 1007.92 1007.27 1008.46 1007.89 1006.08 1006.47 1008.35 1007.24 1005.93 1005.06
1024.74 1024.25 1023.67 1023.00 1022.48 1022.03 1021.56 1021.09 1020.62 1020.21 1019.81 1019.47 1019.19 1018.89 1018.62 1018.44 1018.39 1018.48 1018.68 1018.72 1019.11 1019.43 1018.74 1017.70 1017.03 1016.52 1016.08 1015.59 1015.69 1015.20 1015.75 1015.69 1015.67 1015.49 1015.18 1014.69 1013.71 1012.37 1012.15 1012.31 1011.82 1011.25 1011.28 1010.84 1011.12 1010.12 1009.55 1009.06 1008.86 1008.46 1008.46 1007.61 1007.37 1006.78
1024.41 1023.89 1023.18 1022.62 1022.14 1021.62 1021.12 1020.62 1020.18 1019.81 1019.46 1019.08 1018.78 1018.45 1018.20 1018.06 1018.04 1018.22 1018.64 1019.02 1019.21 1019.19 1018.43 1017.42 1016.37 1015.76 1015.46 1015.28 1015.08 1015.25 1015.70 1015.74 1015.84 1016.06 1016.24 1015.46 1014.81 1014.50 1014.00 1013.31 1012.37 1011.85 1011.44 1011.93 1011.47 1010.18 1009.87 1009.00 1008.85 1008.38 1008.15 1008.05 1008.24 1007.75
1024.01 1023.31 1022.64 1022.17 1021.72 1021.18 1020.64 1020.19 1019.78 1019.44 1019.08 1018.72 1018.45 1018.18 1017.97 1017.89 1018.06 1018.27 1018.71 1018.89 1019.04 1019.03 1018.81 1017.19 1015.95 1016.12 1015.97 1015.59 1015.25 1015.07 1015.35 1015.61 1015.60 1015.73 1016.16 1016.06 1015.98 1015.74 1014.87 1014.38 1013.98 1014.63 1013.95 1013.30 1011.72 1010.85 1010.13 1008.82 1009.24 1009.58 1008.29 1008.08 1007.90 1007.96
1023.46 1022.77 1022.26 1021.76 1021.26 1020.75 1020.25 1019.82 1019.46 1019.12 1018.75 1018.49 1018.21 1017.93 1017.83 1017.84 1017.97 1018.18 1018.48 1018.77 1018.81 1019.26 1019.00 1017.75 1016.62 1016.55 1016.50 1016.31 1016.09 1015.87 1015.81 1016.01 1016.26 1016.42 1016.79 1017.22 1016.99 1016.67 1015.97 1015.04 1014.56 1014.47 1014.09 1013.29 1012.18 1011.56 1011.75 1010.76 1010.09 1010.08 1009.60 1008.01 1007.69 1007.28
1023.00 1022.33 1021.86 1021.43 1020.86 1020.37 1019.89 1019.50 1019.18 1018.86 1018.59 1018.38 1018.15 1017.89 1017.81 1017.92 1018.11 1018.37 1018.58 1018.64 1018.43 1018.65 1018.71 1018.18 1016.76 1016.46 1016.57 1016.71 1016.66 1016.65 1016.63 1016.81 1017.10 1017.40 1017.89 1018.12 1018.04 1017.40 1017.09 1016.47 1015.47 1014.67 1013.55 1012.25 1010.72 1009.97 1010.30 1009.77 1009.51 1009.20 1008.41 1008.17 1007.58 1006.91
1022.56 1021.96 1021.48 1021.00 1020.51 1020.04 1019.57 1019.22 1018.93 1018.63 1018.43 1018.30 1018.16 1018.07 1017.94 1017.93 1018.29 1018.38 1018.16 1017.97 1017.97 1018.44 1018.68 1018.32 1017.30 1016.54 1016.32 1016.38 1016.61 1016.86 1017.03 1017.57 1017.74 1018.20 1018.44 1018.37 1017.85 1017.62 1017.42 1016.76 1015.49 1014.37 1012.92 1011.50 1010.46 1009.13 1009.00 1008.76 1008.51 1008.27 1008.43 1007.84 1007.25 1006.25
1021.99 1021.55 1021.11 1020.62 1020.23 1019.81 1019.30 1018.95 1018.65 1018.36 1018.24 1018.24 1018.23 1018.17 1018.10 1018.01 1018.27 1018.25 1018.17 1017.87 1018.13 1018.57 1018.58 1018.32 1017.22 1016.66 1016.52 1016.81 1017.31 1017.60 1017.80 1017.81 1018.20 1018.47 1018.55 1018.58 1018.50 1018.71 1018.31 1017.42 1015.79 1014.93 1013.20 1012.07 1010.87 1009.83 1009.18 1008.36 1007.60 1007.28 1007.11 1007.11 1007.18 1007.53
1021.54 1021.13 1020.74 1020.33 1019.98 1019.60 1019.06 1018.66 1018.37 1018.16 1018.09 1018.05 1018.22 1018.26 1018.38 1018.39 1018.12 1017.84 1017.67 1017.90 1018.32 1019.08 1018.62 1018.16 1017.51 1016.86 1016.36 1016.78 1017.45 1017.88 1018.15 1018.41 1018.88 1018.90 1018.92 1019.03 1019.25 1019.11 1018.21 1016.93 1015.91 1014.83 1014.12 1012.74 1011.20 1010.45 1009.55 1008.65 1008.11 1007.45 1006.72 1007.32 1007.27 1006.57
1021.09 1020.69 1020.30 1019.89 1019.59 1019.24 1018.75 1018.33 1018.08 1017.95 1017.96 1018.15 1018.34 1018.50 1018.10 1017.75 1017.48 1017.73 1018.10 1018.21 1018.29 1018.43 1018.22 1017.76 1016.74 1016.18 1016.02 1016.24 1016.87 1017.46 1017.91 1018.08 1018.27 1018.69 1018.83 1019.02 1018.59 1018.23 1017.43 1016.77 1016.11 1015.40 1014.71 1013.63 1012.44 1011.47 1010.73 1010.25 1009.92 1009.15 1008.67 1008.19 1007.72 1007.77
1020.67 1020.25 1019.74 1019.25 1018.94 1018.73 1018.37 1018.10 1017.95 1017.92 1018.04 1018.32 1018.31 1018.13 1018.03 1017.72 1017.82 1017.72 1017.61 1017.65 1017.38 1017.74 1017.17 1016.65 1016.14 1015.65 1015.20 1015.58 1015.99 1016.41 1016.87 1017.29 1017.76 1018.28 1018.50 1018.71 1018.59 1018.13 1017.35 1016.81 1016.15 1015.69 1015.36 1014.84 1014.38 1013.56 1012.74 1012.07 1011.41 1010.65 1010.04 1009.27 1008.43 1007.37
1020.20 1019.81 1019.29 1018.71 1018.24 1018.16 1017.98 1017.86 1017.86 1018.15 1017.83 1017.83 1017.87 1017.60 1017.78 1017.84 1017.47 1017.34 1016.67 1016.28 1016.36 1016.10 1015.66 1015.21 1014.55 1014.69 1014.72 1014.92 1015.51 1015.75 1016.09 1016.58 1017.36 1017.73 1018.57 1018.93 1018.43 1017.93 1017.38 1016.77 1016.07 1015.61 1015.32 1014.96 1014.57 1014.23 1013.77 1013.02 1012.61 1012.05 1011.23 1010.33 1009.52 1008.48
1019.77 1019.27 1018.68 1018.18 1017.66 1017.42 1017.48 1017.41 1017.39 1017.35 1017.51 1017.30 1017.47 1017.18 1017.09 1016.66 1016.66 1016.36 1016.27 1016.03 1015.65 1014.82 1014.24 1013.99 1014.05 1014.00 1014.33 1014.42 1014.82 1015.10 1015.54 1016.46 1016.79 1018.43 1019.40 1019.15 1018.44 1017.79 1017.24 1016.66 1015.99 1015.17 1014.98 1014.92 1014.60 1014.30 1014.02 1013.63 1013.17 1012.61 1011.97 1011.39 1010.58 1009.49
1019.17 1018.60 1018.04 1017.54 1017.11 1016.74 1016.78 1016.74 1016.74 1017.16 1017.49 1017.33 1016.82 1016.39 1016.17 1015.99 1015.94 1015.81 1015.65 1015.20 1014.56 1013.93 1013.25 1013.21 1013.49 1013.58 1013.75 1014.25 1014.22 1015.06 1016.32 1016.97 1018.27 1019.23 1019.58 1018.84 1018.19 1017.73 1017.06 1016.45 1015.98 1015.37 1014.74 1014.60 1014.57 1014.32 1014.16 1013.91 1013.55 1013.16 1012.69 1012.23 1011.70 1011.12
1018.55 1017.87 1017.36 1016.87 1016.60 1016.28 1016.11 1016.15 1016.36 1016.84 1016.93 1016.57 1015.54 1015.43 1015.20 1015.10 1014.90 1014.75 1014.45 1014.27 1013.61 1012.89 1012.65 1012.76 1012.89 1013.31 1014.06 1014.48 1015.10 1015.88 1017.13 1018.21 1018.89 1019.27 1018.76 1018.12 1017.72 1017.47 1016.92 1016.39 1015.93 1015.50 1014.91 1014.47 1014.20 1014.19 1013.95 1013.89 1013.72 1013.48 1013.34 1012.99 1012.64 1012.26
1017.99 1017.15 1016.67 1016.50 1016.25 1015.76 1015.58 1015.86 1016.36 1016.30 1015.96 1015.31 1014.41 1014.55 1014.77 1014.83 1015.01 1014.78 1014.50 1014.29 1013.28 1012.99 1012.31 1012.70 1013.59 1014.26 1015.07 1015.60 1016.32 1017.03 1017.96 1018.67 1018.82 1018.33 1017.77 1017.55 1017.24 1017.00 1016.59 1016.16 1015.68 1015.25 1014.88 1014.47 1014.02 1013.80 1013.64 1013.73 1013.64 1013.49 1013.33 1013.21 1013.12 1013.03
1017.53 1016.78 1016.41 1016.29 1015.70 1014.85 1014.58 1015.06 1015.65 1015.57 1014.77 1014.31 1014.10 1013.95 1014.26 1014.55 1014.66 1014.46 1014.28 1013.97 1013.24 1013.44 1013.87 1013.70 1014.56 1015.02 1015.46 1016.20 1016.94 1017.37 1018.23 1018.62 1018.50 1018.02 1017.37 1017.03 1016.64 1016.53 1016.16 1015.81 1015.46 1015.15 1014.86 1014.62 1014.26 1014.05 1013.83 1013.64 1013.56 1013.49 1013.31 1013.04 1012.90 1012.99
1017.34 1016.13 1016.02 1016.26 1015.97 1015.08 1014.72 1014.85 1014.57 1014.10 1013.89 1013.79 1014.10 1014.06 1013.93 1013.93 1014.16 1014.14 1013.85 1013.64 1013.71 1013.75 1013.93 1014.36 1014.55 1015.57 1016.32 1017.03 1017.61 1017.98 1018.22 1018.07 1017.70 1017.44 1017.03 1016.70 1016.34 1016.08 1015.71 1015.58 1015.12 1014.96 1014.85 1014.80 1014.54 1014.48 1014.26 1014.14 1014.12 1013.97 1013.71 1013.48 1013.19 1013.13
1017.17 1016.58 1015.86 1016.18 1016.43 1016.26 1015.32 1014.07 1013.77 1013.90 1013.14 1013.16 1013.20 1013.24 1013.31 1013.52 1013.30 1013.15 1013.44 1013.26 1013.23 1013.48 1014.10 1014.87 1015.84 1016.65 1017.12 1017.25 1017.56 1017.83 1017.77 1017.81 1017.76 1017.44 1017.09 1016.58 1016.11 1015.83 1015.51 1015.24 1014.92 1014.85 1014.94 1015.01 1014.85 1014.86 1014.80 1014.39 1014.35 1014.20 1013.89 1013.79 1013.79 1013.74
1016.06 1015.32 1015.01 1015.49 1015.99 1015.92 1015.17 1013.91 1012.95 1013.43 1013.14 1012.95 1012.90 1013.13 1013.43 1013.45 1013.12 1013.26 1013.48 1013.52 1013.64 1014.18 1015.15 1015.93 1016.39 1016.32 1016.53 1016.76 1016.84 1017.25 1017.35 1017.38 1017.37 1017.45 1017.21 1016.65 1016.07 1015.67 1015.39 1015.17 1015.07 1015.02 1015.10 1015.11 1015.11 1014.93 1015.01 1014.79 1014.62 1014.43 1014.20 1014.17 1014.15 1014.36
1015.44 1014.54 1014.65 1015.06 1015.54 1015.52 1014.83 1013.79 1013.38 1013.06 1012.85 1012.89 1012.61 1012.87 1013.13 1012.82 1013.17 1013.40 1013.57 1013.59 1014.20 1015.00 1015.52 1015.78 1015.97 1015.76 1015.62 1015.71 1015.93 1016.33 1016.72 1016.87 1017.11 1017.27 1017.19 1016.85 1016.19 1015.89 1015.65 1015.36 1015.21 1015.21 1015.36 1015.51 1015.52 1015.42 1015.39 1015.48 1015.39 1015.00 1014.65 1014.99 1014.98 1014.73
1015.43 1014.47 1014.60 1014.70 1014.79 1014.35 1014.14 1013.15 1013.21 1012.69 1012.88 1012.50 1012.45 1012.54 1013.11 1013.22 1013.51 1013.47 1013.20 1013.76 1014.28 1014.33 1014.59 1014.96 1015.30 1015.38 1015.70 1015.86 1015.80 1015.83 1015.85 1016.26 1016.54 1016.74 1016.54 1016.43 1016.51 1016.25 1016.00 1015.79 1015.68 1015.77 1015.57 1015.62 1015.66 1015.60 1015.63 1015.45 1015.19 1015.19 1015.18 1015.26 1015.23 1015.24
1015.12 1014.92 1014.77 1014.42 1014.41 1014.42 1013.70 1012.72 1012.95 1012.93 1013.12 1012.57 1012.28 1012.64 1013.30 1014.51 1014.61 1013.83 1013.73 1013.82 1013.70 1013.53 1013.70 1014.24 1014.54 1014.74 1014.85 1015.19 1015.45 1015.70 1015.77 1016.43 1016.95 1016.95 1016.82 1016.73 1016.54 1016.34 1016.29 1016.32 1016.17 1016.22 1016.17 1016.03 1015.61 1015.43 1015.52 1015.54 1015.51 1015.69 1015.78 1015.72 1015.75 1015.94
1015.05 1015.18 1015.00 1014.63 1014.32 1014.10 1013.18 1012.94 1012.73 1013.09 1013.21 1013.17 1013.20 1013.22 1013.79 1014.65 1014.73 1014.68 1015.10 1015.96 1015.22 1014.85 1014.70 1014.67 1014.63 1014.99 1015.15 1015.32 1015.85 1016.08 1016.39 1016.50 1016.87 1017.04 1016.94 1016.89 1017.02 1017.13 1016.90 1016.82 1016.59 1016.61 1016.55 1016.16 1015.96 1015.74 1015.75 1016.00 1016.04 1016.06 1016.16 1016.14 1016.33 1016.49
1016.19 1015.78 1015.41 1014.89 1014.13 1013.74 1013.20 1012.74 1013.10 1013.48 1013.52 1013.78 1013.68 1013.25 1013.60 1013.99 1014.48 1015.33 1015.89 1015.84 1015.65 1015.50 1016.08 1015.61 1015.59 1015.38 1015.50 1015.86 1016.05 1016.13 1016.02 1016.16 1016.49 1017.11 1016.96 1016.81 1017.08 1017.34 1017.44 1017.22 1016.96 1016.87 1016.64 1016.56 1016.62 1016.40 1016.49 1016.45 1016.41 1016.52 1016.57 1016.64 1016.82 1016.88
1016.24 1015.01 1014.74 1013.86 1013.29 1013.47 1013.34 1013.67 1013.95 1014.22 1014.46 1014.49 1014.13 1013.82 1014.13 1014.64 1015.29 1015.81 1015.84 1015.64 1015.73 1015.58 1015.18 1015.45 1015.42 1015.41 1015.33 1015.32 1016.01 1016.22 1016.10 1015.71 1015.87 1016.50 1016.57 1016.54 1016.64 1016.99 1017.49 1017.67 1017.55 1017.40 1017.06 1016.88 1016.80 1016.82 1016.73 1016.61 1016.68 1016.79 1016.86 1016.92 1016.96 1017.04
1015.09 1013.93 1013.10 1012.48 1012.49 1013.06 1014.14 1014.22 1014.37 1014.47 1014.11 1013.75 1013.80 1014.19 1014.20 1014.50 1015.64 1015.79 1015.37 1015.07 1014.90 1014.30 1014.50 1014.62 1014.61 1014.65 1014.97 1015.23 1015.30 1014.98 1015.07 1015.26 1015.43 1015.70 1015.91 1016.33 1016.32 1016.36 1016.76 1017.15 1017.35 1017.59 1017.16 1016.97 1017.03 1017.06 1017.11 1017.06 1016.98 1016.98 1017.09 1017.14 1017.17 1017.20
1013.48 1012.52 1012.19 1012.17 1012.40 1012.69 1013.26 1013.99 1014.25 1014.05 1013.65 1014.18 1015.75 1016.20 1015.85 1015.92 1015.55 1015.21 1014.81 1014.46 1014.46 1014.09 1013.89 1013.92 1013.90 1014.01 1014.45 1014.49 1014.47 1014.76 1014.93 1015.06 1015.35 1015.74 1016.13 1016.45 1016.50 1016.53 1016.64 1016.82 1017.04 1017.13 1017.19 1017.21 1017.19 1017.17 1017.29 1017.43 1017.47 1017.39 1017.32 1017.42 1017.44 1017.39
1012.41 1011.58 1011.30 1011.25 1011.62 1012.22 1012.61 1012.82 1012.92 1013.24 1013.17 1013.67 1014.94 1015.60 1015.11 1015.09 1014.91 1014.50 1014.13 1014.05 1013.99 1014.06 1014.07 1014.08 1014.20 1014.36 1014.99 1015.20 1015.52 1015.74 1015.84 1016.17 1016.55 1017.14 1017.38 1017.71 1017.62 1017.64 1017.01 1017.02 1017.31 1017.38 1017.46 1017.48 1017.50 1017.53 1017.54 1017.65 1017.79 1017.75 1017.72 1017.62 1017.61 1017.53
1011.03 1010.46 1010.89 1010.70 1010.91 1010.66 1010.13 1010.71 1011.34 1012.13 1013.02 1013.74 1014.46 1015.23 1015.25 1014.94 1014.67 1014.29 1014.02 1013.92 1013.93 1014.28 1014.49 1014.81 1015.11 1015.34 1016.09 1016.46 1017.01 1017.30 1017.47 1017.52 1017.65 1018.03 1018.42 1018.60 1018.62 1018.15 1017.61 1017.47 1017.54 1017.70 1017.73 1017.77 1017.88 1017.97 1018.06 1017.85 1017.84 1017.92 1017.93 1018.04 1018.12 1018.15
1009.60 1009.86 1010.46 1010.65 1010.06 1009.25 1008.66 1009.17 1011.17 1012.01 1012.83 1013.68 1014.25 1014.79 1015.07 1015.07 1014.78 1014.39 1014.14 1014.00 1014.27 1014.85 1015.22 1015.63 1016.03 1016.15 1016.66 1017.16 1017.50 1017.96 1018.64 1018.87 1018.72 1018.78 1018.79 1018.81 1018.64 1018.50 1018.34 1018.19 1018.01 1017.99 1018.05 1018.28 1018.48 1018.58 1018.52 1018.44 1018.42 1018.46 1018.38 1018.33 1018.36 1018.42
1009.17 1009.22 1009.31 1009.58 1009.13 1008.51 1008.45 1009.01 1010.53 1011.98 1013.26 1013.89 1014.40 1014.39 1014.71 1014.96 1015.15 1015.00 1014.53 1014.63 1015.12 1015.56 1015.86 1016.04 1016.43 1017.06 1017.28 1017.67 1018.07 1018.53 1018.90 1019.39 1019.44 1019.40 1019.38 1019.36 1019.34 1019.24 1019.03 1018.80 1018.66 1018.63 1018.71 1018.83 1018.87 1018.80 1018.82 1018.83 1018.83 1018.80 1018.80 1018.77 1018.69 1018.68
1008.47 1008.57 1008.56 1008.70 1008.39 1008.25 1008.16 1008.36 1009.33 1012.01 1012.70 1013.39 1013.74 1013.92 1014.07 1014.43 1014.95 1015.05 1014.70 1014.66 1015.04 1015.50 1015.96 1016.21 1016.61 1017.08 1017.57 1018.05 1018.62 1019.20 1019.56 1019.85 1019.95 1019.85 1019.86 1019.80 1019.82 1019.74 1019.67 1019.48 1019.24 1019.16 1019.25 1019.28 1019.26 1019.25 1019.24 1019.20 1019.19 1019.18 1019.23 1019.16 1019.17 1019.14
Wind_Speed
14 16 18 18 18 18 18 19 20 18 17 16 15 14 13 11 9 1 2 6 4 2 4 4 6 8 6 4 2 4 5 6 5 6 4 5 4 4 2 4 3 3 2 4 8 7 6 17 12 11 5 10 17 14
16 16 18 19 18 18 18 18 17 16 17 15 14 14 12 9 6 2 2 2 2 0 5 3 7 10 9 11 4 1 2 2 3 4 4 3 2 5 7 4 7 5 4 1 4 3 5 1 4 4 8 10 14 16
16 18 19 19 18 17 18 17 17 16 16 15 14 13 10 5 3 4 2 2 2 0 4 3 4 4 4 2 4 3 2 1 2 4 3 3 4 5 5 4 4 11 13 5 8 4 11 14 7 9 14 14 13 12
17 18 18 18 17 17 16 16 16 15 15 14 14 12 8 4 4 6 2 2 0 1 1 6 0 4 7 7 6 2 4 3 2 2 2 2 3 4 4 3 3 6 6 10 9 6 12 3 8 16 23 18 17 13
17 19 18 17 17 17 17 16 14 14 14 13 13 10 1 4 7 3 2 3 2 3 2 5 7 1 5 6 9 8 5 3 2 2 4 4 2 4 4 4 4 9 7 5 5 13 13 20 21 20 18 20 18 13
19 19 17 18 17 16 15 15 14 13 12 12 10 4 5 7 7 2 1 2 2 3 3 3 4 4 2 3 5 8 4 4 3 3 3 3 4 4 3 2 5 18 18 14 9 8 12 19 19 21 19 18 20 12
19 17 16 17 15 16 15 13 13 12 10 8 4 3 1 4 2 3 4 4 5 2 2 3 4 2 2 3 4 3 4 3 2 2 3 2 4 4 4 5 18 17 18 19 19 13 6 14 9 7 7 12 10 10
17 17 16 16 16 15 14 13 11 9 7 6 3 4 7 9 6 1 2 4 3 2 1 1 3 2 2 3 3 3 3 3 5 3 3 3 3 3 4 15 17 15 18 19 20 16 7 9 11 12 9 10 9 9
18 17 17 17 15 14 14 12 9 7 4 2 2 4 2 1 2 3 7 5 1 2 1 1 1 3 1 1 2 2 2 4 1 2 2 1 2 4 7 11 14 12 17 20 20 22 19 18 15 15 13 6 2 6
17 17 17 16 14 13 13 11 7 6 2 2 2 1 3 2 10 8 3 1 1 2 2 3 1 3 4 3 2 2 1 1 2 1 3 3 2 3 6 7 7 8 12 17 21 24 18 20 18 19 18 16 15 9
17 18 17 17 16 11 9 8 4 6 4 1 2 2 1 3 1 1 2 2 0 2 2 4 5 3 1 3 3 3 3 3 2 2 3 2 2 7 8 8 6 4 5 9 9 12 16 16 15 16 16 17 17 18
17 18 18 17 17 12 7 5 3 1 3 3 2 2 2 0 1 1 3 1 2 4 4 4 5 5 2 4 2 3 3 2 2 3 4 4 3 7 7 7 9 5 2 7 7 8 10 14 14 12 13 15 16 18
17 18 18 17 17 14 7 6 10 11 8 1 1 2 4 3 5 3 5 6 5 4 3 3 4 3 1 2 2 3 3 3 4 5 2 3 6 7 7 6 8 9 4 4 7 7 7 8 11 14 14 15 17 19
18 19 18 17 16 15 8 7 5 4 2 2 4 5 3 2 2 2 3 4 7 4 7 1 1 3 3 2 1 5 2 5 4 4 2 4 6 7 7 6 5 8 9 3 2 3 6 7 9 10 11 13 16 18
19 20 18 11 8 10 10 6 8 3 2 4 2 2 1 1 1 2 2 4 5 4 4 3 2 4 4 5 4 5 5 3 1 4 3 4 5 5 6 6 7 8 7 7 2 4 2 1 3 5 6 7 10 11
20 18 2 5 12 12 5 7 4 2 3 3 2 3 1 5 4 4 3 4 4 5 4 4 4 4 4 3 4 2 4 3 4 3 4 1 2 4 5 7 7 6 6 7 6 4 3 3 3 3 2 3 3 5
15 4 5 7 19 17 9 4 3 4 4 2 2 1 4 3 3 3 1 4 3 4 2 3 4 0 2 3 2 3 2 3 4 4 3 4 3 5 7 7 7 5 4 6 6 6 5 4 4 4 6 4 3 4
4 5 16 15 14 5 2 3 3 2 4 2 4 4 1 2 2 2 3 2 4 4 3 1 3 5 2 2 1 2 2 3 2 3 4 3 4 6 5 6 6 4 1 4 6 6 6 7 5 2 4 4 5 6
10 14 23 17 5 2 2 2 4 3 4 3 2 1 2 2 3 3 2 2 1 1 4 4 5 2 1 2 3 3 2 1 2 3 3 5 3 4 5 5 5 4 5 2 5 4 2 5 4 1 3 4 3 3
20 20 18 9 9 1 3 4 3 2 3 4 0 1 2 3 2 1 2 0 3 3 5 3 2 3 5 4 4 4 3 2 1 4 5 6 5 6 6 3 2 2 3 4 4 6 5 6 5 3 3 3 4 4
8 2 4 6 3 3 3 2 3 4 3 1 3 3 3 2 1 1 2 2 4 2 2 3 4 4 4 4 5 4 3 3 3 4 5 4 4 3 5 5 3 4 4 2 3 3 5 3 3 4 5 5 4 4
5 7 1 3 2 2 2 3 4 3 0 4 2 3 3 2 2 2 2 3 3 4 5 5 3 4 4 4 5 6 6 5 3 4 4 1 4 4 4 4 4 4 5 3 3 3 2 1 3 5 6 7 5 4
8 2 2 2 2 4 8 1 0 3 2 4 1 1 2 4 4 5 1 1 2 3 4 3 3 3 5 3 4 3 3 4 3 3 4 3 3 4 5 5 4 7 6 6 1 1 2 3 6 5 5 4 5 5
2 1 2 3 3 5 3 3 3 2 3 3 5 5 4 2 1 3 5 4 5 6 5 2 3 4 5 6 5 4 3 4 4 3 3 4 5 5 5 4 4 4 3 3 4 4 5 5 5 5 5 5 6 4
4 6 5 6 4 2 4 3 4 2 3 2 3 3 4 2 4 2 1 2 2 3 1 2 3 2 4 3 3 3 3 5 6 3 3 3 3 4 4 4 5 4 3 5 5 5 4 4 5 5 5 5 7 6
1 4 7 5 2 1 3 2 2 3 1 2 4 2 1 3 3 2 3 1 1 3 6 5 4 2 1 3 5 3 4 4 5 4 3 4 4 4 4 3 4 5 4 3 5 6 6 3 5 6 5 6 7 6
2 5 5 4 2 6 5 3 1 2 5 5 1 5 4 3 2 3 3 3 3 3 2 4 4 3 3 3 2 4 5 5 6 5 3 4 3 5 6 5 4 2 1 5 5 5 5 5 5 5 5 4 3 4
6 3 4 2 3 3 5 2 3 4 2 7 6 3 14 6 4 3 5 2 3 5 4 3 4 4 5 4 2 2 1 2 5 6 5 4 3 4 4 4 4 8 5 4 5 5 5 5 5 5 5 4 4 4
4 4 0 6 5 5 5 7 5 3 2 3 5 6 7 2 3 3 3 2 3 3 1 3 3 4 9 8 8 8 8 7 9 9 7 3 3 4 3 4 4 3 4 4 7 5 6 6 5 3 3 3 1 3
6 4 4 3 2 5 7 8 3 6 3 4 4 3 2 3 2 2 3 2 2 7 8 7 5 8 8 8 8 9 8 7 7 6 5 4 1 4 4 4 5 4 3 5 5 6 5 6 7 4 4 4 3 3
4 3 4 3 5 4 4 6 10 5 4 3 3 3 2 0 4 3 4 5 8 7 8 7 6 5 6 6 6 7 6 5 8 9 6 4 5 6 6 5 4 5 5 7 5 4 4 4 3 5 5 4 5 5
1 5 5 4 5 4 2 3 5 5 4 2 1 1 2 2 1 3 3 5 6 6 5 6 6 7 8 8 8 8 9 4 4 5 7 5 5 6 5 5 5 5 5 5 4 4 3 3 3 3 5 5 6 5
3 3 3 2 2 2 2 4 5 4 2 3 3 5 4 4 2 3 2 4 5 6 5 5 6 8 9 11 9 7 7 5 8 10 11 10 10 9 5 5 5 5 6 5 4 5 7 7 6 6 5 6 7 6
Wind_Direction
307 307 311 311 312 317 321 319 323 321 320 323 322 321 316 309 300 252 250 178 157 204 283 274 292 291 280 252 284 320 336 6 347 17 3 339 333 326 62 36 19 42 329 354 338 58 54 348 353 59 300 358 9 360
303 304 307 308 314 322 323 324 321 321 328 329 323 316 313 308 294 191 233 144 140 124 268 265 268 267 271 266 277 167 184 340 360 23 359 297 313 342 2 59 350 57 26 286 23 184 179 66 307 282 9 11 5 351
305 305 306 311 320 325 326 325 325 328 330 328 325 325 332 330 274 184 117 106 100 301 286 309 292 277 349 337 256 134 103 8 335 196 226 292 32 339 6 37 24 5 3 35 321 134 3 316 302 360 357 348 341 336
304 306 312 318 324 328 326 331 331 334 331 332 335 332 331 4 101 130 137 181 326 94 56 287 215 15 356 15 23 55 126 107 300 39 52 54 42 354 328 307 63 13 342 316 285 283 329 1 341 336 321 324 318 316
306 307 314 323 330 332 332 334 336 333 333 341 340 338 8 133 150 149 120 198 196 123 199 286 318 101 29 30 29 29 49 57 42 31 39 34 348 348 326 348 11 4 340 330 278 286 277 271 287 289 296 301 297 309
308 310 321 329 334 333 335 338 337 335 339 342 344 27 122 138 152 152 310 272 227 130 91 12 282 360 111 42 76 62 43 33 39 28 33 36 330 351 31 312 316 334 319 316 300 257 238 260 270 278 283 283 279 283
308 316 324 333 333 333 335 341 335 334 340 335 344 22 37 146 131 198 193 201 166 98 44 331 319 285 18 16 17 15 30 62 55 81 55 358 5 15 13 343 324 339 339 347 347 347 271 257 265 292 251 261 271 286
315 322 325 334 333 333 336 344 335 332 342 334 314 38 60 91 81 354 269 117 104 101 92 302 274 324 186 331 357 8 20 17 22 20 27 19 4 13 28 320 341 4 351 350 356 357 320 311 319 301 252 234 271 258
320 323 328 330 332 331 334 342 335 336 315 263 267 319 22 205 225 217 174 141 102 129 288 268 155 271 201 70 63 46 52 36 359 42 37 24 8 49 249 328 360 5 8 355 1 15 13 11 2 7 13 30 329 318
318 318 315 320 321 327 333 341 340 333 195 156 29 9 288 244 121 114 45 152 185 239 241 250 216 258 169 161 184 106 91 306 38 60 127 66 22 253 292 314 318 356 357 1 14 12 11 22 20 24 28 18 16 13
318 315 313 311 313 321 321 331 342 104 99 76 236 241 251 168 48 108 281 188 220 283 202 231 201 228 224 177 178 198 174 172 76 230 97 26 29 342 335 320 325 330 9 18 28 24 18 16 22 22 18 15 11 359
315 311 310 310 312 318 317 312 165 143 193 212 259 250 108 213 294 285 254 299 143 242 206 209 224 195 235 105 127 191 225 142 80 129 66 10 346 323 327 319 317 340 39 27 23 10 28 40 25 14 20 21 14 12
312 307 307 306 307 307 303 270 216 241 348 320 225 250 107 252 17 325 346 327 342 297 272 218 270 156 251 141 205 160 57 42 90 50 22 249 286 313 320 319 317 328 42 84 39 24 27 35 40 35 30 23 16 16
313 309 307 306 302 296 290 275 241 159 136 170 192 320 151 349 279 253 223 229 249 266 302 299 249 174 191 120 283 75 74 51 60 29 284 257 278 296 315 315 338 322 335 45 129 30 15 33 46 39 39 44 41 30
316 314 313 294 309 298 300 283 176 169 146 240 149 279 22 252 234 244 288 355 298 271 320 1 27 81 16 50 28 45 44 35 107 235 236 242 258 285 303 316 322 326 326 338 16 195 208 36 65 55 48 53 55 55
324 315 256 306 312 305 275 120 147 181 249 230 261 22 284 60 337 353 330 305 294 308 348 46 60 58 35 80 54 31 85 226 271 240 242 216 260 287 295 309 315 305 322 338 353 352 217 228 205 181 177 130 98 68
323 234 205 353 345 329 160 144 143 223 235 261 285 9 131 160 194 231 225 282 301 34 335 71 49 142 80 74 48 66 141 214 240 285 277 232 240 258 285 305 312 314 332 348 360 12 25 101 90 58 47 38 70 169
238 289 334 350 347 312 202 197 235 249 266 262 93 271 337 176 200 301 264 294 49 351 29 346 105 41 49 69 353 256 202 247 253 313 315 270 290 294 291 287 291 327 72 17 56 34 24 29 39 47 48 1 54 39
276 291 293 304 309 340 308 260 128 247 249 173 184 212 164 225 230 182 196 312 141 143 70 33 59 84 233 206 172 204 201 180 268 295 291 297 322 319 320 312 332 32 93 68 70 64 12 17 17 15 48 35 46 21
290 268 262 250 183 208 296 282 105 181 272 243 149 258 185 210 238 129 169 68 83 70 42 61 179 207 171 213 174 176 185 201 60 357 326 322 312 356 340 295 310 121 126 85 51 58 28 10 13 9 49 30 78 45
317 276 95 136 154 213 250 285 308 217 260 244 247 157 211 271 122 190 213 171 70 133 123 187 205 224 204 172 159 148 186 186 234 193 238 283 299 357 351 340 43 58 83 114 85 48 55 22 342 11 31 62 58 54
265 334 342 183 271 201 250 239 184 252 68 233 307 176 197 213 202 235 219 78 164 196 167 165 208 192 205 202 189 181 188 218 294 321 319 43 30 16 349 333 63 46 41 48 141 105 90 7 53 42 51 85 85 60
308 147 256 260 255 45 255 24 209 248 237 264 9 221 73 136 257 326 334 271 213 205 152 154 217 227 212 179 151 160 167 87 40 42 32 28 31 22 37 49 46 48 25 7 334 80 91 87 61 75 57 59 67 62
4 311 300 306 149 242 306 249 206 83 331 343 338 308 73 112 300 12 11 347 331 330 15 23 103 40 43 59 77 102 126 115 95 39 25 66 50 22 59 40 42 52 17 346 6 26 62 83 62 58 67 70 59 75
56 292 105 289 265 269 257 261 69 39 289 313 297 260 154 174 87 66 277 293 279 73 297 335 1 65 110 117 123 142 177 139 129 138 296 117 117 83 42 36 35 16 8 36 8 47 70 76 71 72 77 75 74 59
113 242 161 238 246 158 346 55 324 306 324 291 250 291 98 80 75 177 236 140 22 178 222 193 184 139 1 131 155 184 223 194 120 137 236 140 142 124 120 106 54 353 359 68 53 39 41 85 94 74 70 70 90 74
261 261 233 230 212 89 12 321 325 258 247 219 324 356 325 52 26 266 267 230 222 231 190 194 165 162 155 165 205 183 188 177 167 182 163 138 128 124 139 139 130 209 73 63 66 62 48 40 63 92 79 63 89 85
237 258 213 252 113 183 176 135 228 235 249 120 141 344 342 12 260 241 222 255 222 289 209 182 206 153 126 173 230 359 336 135 71 91 72 70 64 91 110 108 116 126 95 83 84 68 63 53 41 54 61 56 38 27
239 248 91 276 177 175 214 202 206 191 213 113 125 187 189 221 235 254 301 232 227 236 198 208 320 57 73 65 48 45 48 58 78 78 80 67 55 356 38 105 148 133 109 96 73 70 63 64 30 359 29 110 59 16
252 171 202 263 263 244 226 172 166 127 79 98 103 48 18 280 276 322 328 358 48 69 76 78 73 80 97 94 85 63 46 49 50 81 88 70 335 308 21 65 74 90 134 90 59 40 56 61 32 359 20 61 54 41
216 100 36 297 250 263 231 121 109 89 82 73 85 114 151 200 326 307 354 21 81 90 80 72 65 75 95 104 109 95 64 15 56 59 59 41 22 31 29 34 53 58 68 76 72 67 55 41 40 48 31 24 43 81
177 188 185 241 275 265 201 139 105 80 137 97 56 95 101 82 72 328 328 83 81 91 103 102 95 93 94 87 82 88 96 100 69 58 54 51 45 31 20 13 33 76 82 81 67 73 79 99 57 84 39 29 44 84
174 211 224 261 295 319 314 158 127 92 128 156 183 185 174 133 110 236 346 51 128 141 131 111 101 111 114 118 122 113 101 100 102 91 80 76 70 51 33 16 19 54 81 63 45 45 49 55 60 69 56 51 54 44